Flag for Japan Weather past 2 weeks in Shizuoka, Japan

Now
67 °F

Fog.


Feels Like: 67 °F
Forecast: 55 / 81 °F
Wind: 7 mph from North

Location: Omaezaki

Current Time: May 28, 2015 at 2:01:11 AM

Latest Report: May 28, 2015 at 1:00 AM


Visibility: 3 mi

Pressure: 29.87 "Hg

Humidity: 94%

Dew point: 65 °F

Location of ShizuokaLocation

Historic Weather in Shizuoka — Graph

°F

Shizuoka temperature yesterday

Maximum temperature yesterday: 74 °F (at 4:00 PM)
Minimum temperature yesterday: 64 °F (at 4:00 AM)
Average temperature yesterday: 69 °F

Past Weeks' High & Low Weather Summary

 TemperatureHumidityPressure
High75 °F (May 25, 3:00 PM)100% (May 16, 12:00 AM)30.02 "Hg (May 16, 12:00 AM)
Low57 °F (May 21, 5:00 AM)49% (May 21, 2:00 AM)29.50 "Hg (May 20, 3:00 PM)
Average67 °F84%29.80 "Hg
* Reported Midnight between May 12 and May 13 — Midnight between May 27 and May 28, Shizuoka, Weather by CustomWeather, © 2015

Note: Actual official high and low records may vary slightly from our data, if they occured in-between our weather recording intervals... More about our weather records

Advertising

Shizuoka weather history for previous 24 hours

 ConditionsComfort  
Time TempWeatherWind HumidityBarometerVisibility
12:00 AM
Thu, May 28
67 °FMild.6 mph90%29.87 "Hg6 mi
11:00 PM
Wed, May 27
67 °FMild.5 mph90%29.86 "Hg7 mi
10:00 PM68 °FMild.5 mph91%29.87 "Hg6 mi
9:00 PM69 °FMild.3 mph83%29.87 "Hg11 mi
8:00 PM69 °FMild.No wind78%29.85 "Hg11 mi
7:00 PM69 °FMild.3 mph84%29.83 "Hg9 mi
6:00 PM71 °FMild.7 mph80%29.82 "Hg11 mi
5:00 PM72 °FMild.7 mph77%29.80 "Hg12 mi
4:00 PM74 °FMild.8 mph64%29.80 "Hg12 mi
3:00 PM73 °FMild.8 mph61%29.80 "Hg12 mi
2:00 PM71 °FMild.9 mph83%29.80 "Hg8 mi
1:00 PM72 °FMild.6 mph76%29.81 "Hg8 mi
11:00 AM71 °FFog.9 mph80%29.83 "Hg5 mi
10:00 AM70 °FFog.8 mph82%29.84 "Hg4 mi
9:00 AM69 °FFog.6 mph87%29.83 "Hg2 mi
8:00 AM70 °FFog.6 mph88%29.84 "Hg3 mi
7:00 AM67 °FMild.3 mph89%29.84 "Hg6 mi
5:00 AM64 °FFog.3 mph97%29.83 "Hg3 mi
4:00 AM64 °FFog.3 mph96%29.81 "Hg3 mi
3:00 AM65 °FFog.5 mph95%29.80 "Hg4 mi
2:00 AM66 °FFog.6 mph93%29.80 "Hg6 mi
Weather by CustomWeather, © 2015

See weather overviewHow to use our weather pages